| time (UTC) | temp C | wind direction | speed KPH | gust KPH | rain 1hr cm | rain 24hr cm | rain mn cm | humidity % | barometer mb |
| 20260507040712 | 23 | 252 | 6.4 | 14.5 | 0.00 | 0.00 | 0.00 | 87 | 1016.9 |
| 20260507040207 | 23 | 238 | 4.8 | 14.5 | 0.00 | 0.00 | 0.00 | 87 | 1017.0 |
| 20260507035703 | 23 | 251 | 3.2 | 12.9 | 0.00 | 0.03 | 0.03 | 87 | 1016.8 |
| 20260507035159 | 23 | 228 | 6.4 | 12.9 | 0.00 | 0.03 | 0.03 | 87 | 1016.8 |
| 20260507034656 | 23 | 249 | 1.6 | 16.1 | 0.00 | 0.03 | 0.03 | 87 | 1016.7 |
| 20260507034153 | 23 | 239 | 4.8 | 11.3 | 0.00 | 0.03 | 0.03 | 87 | 1016.6 |
| 20260507033652 | 23 | 262 | 4.8 | 14.5 | 0.00 | 0.03 | 0.03 | 87 | 1016.5 |
| 20260507033148 | 23 | 284 | 3.2 | 14.5 | 0.00 | 0.03 | 0.03 | 87 | 1016.9 |
| 20260507032646 | 23 | 247 | 6.4 | 22.5 | 0.00 | 0.03 | 0.03 | 87 | 1016.5 |
| 20260507032142 | 23 | 237 | 3.2 | 14.5 | 0.00 | 0.03 | 0.03 | 88 | 1016.5 |
| 20260507031639 | 23 | 232 | 9.7 | 11.3 | 0.00 | 0.03 | 0.03 | 88 | 1016.3 |
| 20260507031135 | 23 | 240 | 9.7 | 16.1 | 0.00 | 0.03 | 0.03 | 89 | 1016.5 |
| 20260507030632 | 23 | 226 | 4.8 | 8.0 | 0.00 | 0.03 | 0.03 | 89 | 1016.6 |
| 20260507030130 | 23 | 253 | 4.8 | 14.5 | 0.00 | 0.03 | 0.03 | 89 | 1016.8 |
| 20260507025627 | 22 | 239 | 6.4 | 14.5 | 0.00 | 0.03 | 0.03 | 89 | 1016.9 |
| 20260507025124 | 22 | 227 | 8.0 | 9.7 | 0.00 | 0.03 | 0.03 | 89 | 1017.1 |
| 20260507024622 | 23 | 238 | 3.2 | 6.4 | 0.00 | 0.03 | 0.03 | 89 | 1016.8 |
| 20260507024119 | 23 | 227 | 8.0 | 12.9 | 0.00 | 0.03 | 0.03 | 88 | 1016.9 |
| 20260507023614 | 22 | 238 | 8.0 | 17.7 | 0.00 | 0.03 | 0.03 | 89 | 1016.2 |
| 20260507023112 | 22 | 239 | 3.2 | 8.0 | 0.00 | 0.03 | 0.03 | 89 | 1016.4 |
| 20260507022609 | 22 | 266 | 6.4 | 14.5 | 0.00 | 0.03 | 0.03 | 88 | 1016.4 |
| 20260507022104 | 22 | 215 | 4.8 | 14.5 | 0.00 | 0.03 | 0.03 | 88 | 1016.7 |
| 20260507021601 | 22 | 288 | 1.6 | 17.7 | 0.00 | 0.03 | 0.03 | 89 | 1016.5 |
| 20260507021056 | 22 | 244 | 6.4 | 22.5 | 0.00 | 0.03 | 0.03 | 89 | 1016.8 |
| 20260507020555 | 22 | 258 | 6.4 | 9.7 | 0.00 | 0.03 | 0.03 | 89 | 1017.0 |
| 20260507020051 | 22 | 267 | 3.2 | 4.8 | 0.00 | 0.03 | 0.03 | 89 | 1017.2 |
| 20260507015550 | 22 | 227 | 3.2 | 12.9 | 0.00 | 0.03 | 0.03 | 89 | 1016.9 |
| 20260507015047 | 22 | 263 | 4.8 | 11.3 | 0.00 | 0.03 | 0.03 | 89 | 1017.0 |
| 20260507014543 | 22 | 233 | 4.8 | 6.4 | 0.00 | 0.03 | 0.03 | 89 | 1017.4 |
| 20260507014039 | 22 | 308 | 3.2 | 6.4 | 0.00 | 0.03 | 0.03 | 89 | 1017.4 |
| 20260507013536 | 22 | 221 | 1.6 | 8.0 | 0.00 | 0.03 | 0.03 | 89 | 1017.2 |
| 20260507013033 | 22 | 240 | 8.0 | 11.3 | 0.00 | 0.03 | 0.03 | 89 | 1017.1 |
| 20260507012530 | 22 | 216 | 3.2 | 8.0 | 0.00 | 0.03 | 0.03 | 89 | 1017.0 |
| 20260507012026 | 22 | 217 | 8.0 | 12.9 | 0.00 | 0.03 | 0.03 | 89 | 1017.3 |
| 20260507011524 | 22 | 254 | 9.7 | 17.7 | 0.00 | 0.03 | 0.03 | 89 | 1017.3 |
| 20260507011020 | 22 | 253 | 6.4 | 11.3 | 0.00 | 0.03 | 0.03 | 89 | 1017.3 |
| 20260507010514 | 22 | 239 | 6.4 | 19.3 | 0.00 | 0.03 | 0.03 | 89 | 1017.2 |
| 20260507010011 | 22 | 257 | 4.8 | 8.0 | 0.00 | 0.03 | 0.03 | 89 | 1017.5 |
| 20260507005509 | 22 | 235 | 8.0 | 16.1 | 0.00 | 0.03 | 0.03 | 89 | 1017.3 |
| 20260507005005 | 22 | 213 | 8.0 | 14.5 | 0.00 | 0.03 | 0.03 | 89 | 1017.1 |
| 20260507004502 | 22 | 282 | 3.2 | 12.9 | 0.00 | 0.03 | 0.03 | 88 | 1017.2 |
| 20260507003959 | 22 | 241 | 6.4 | 8.0 | 0.00 | 0.03 | 0.03 | 88 | 1017.2 |
| 20260507003454 | 22 | 233 | 12.9 | 12.9 | 0.00 | 0.03 | 0.03 | 88 | 1017.1 |
| 20260507002949 | 22 | 248 | 4.8 | 12.9 | 0.00 | 0.03 | 0.03 | 88 | 1017.2 |
| 20260507002447 | 22 | 314 | 3.2 | 6.4 | 0.00 | 0.03 | 0.03 | 88 | 1017.1 |
| 20260507001943 | 22 | 238 | 6.4 | 12.9 | 0.00 | 0.03 | 0.03 | 87 | 1017.0 |
| 20260507001439 | 22 | 224 | 9.7 | 16.1 | 0.00 | 0.03 | 0.03 | 87 | 1017.1 |
| 20260507000937 | 22 | 221 | 8.0 | 16.1 | 0.00 | 0.03 | 0.03 | 87 | 1017.3 |
| 20260507000435 | 22 | 218 | 16.1 | 17.7 | 0.00 | 0.03 | 0.03 | 87 | 1017.1 |
| 20260506235928 | 22 | 224 | 3.2 | 9.7 | 0.00 | 0.03 | 0.03 | 87 | 1017.4 |
| 20260506235426 | 22 | 217 | 8.0 | 17.7 | 0.00 | 0.03 | 0.03 | 86 | 1017.2 |
| 20260506234921 | 23 | 231 | 11.3 | 19.3 | 0.00 | 0.03 | 0.03 | 86 | 1017.3 |
| 20260506234420 | 23 | 236 | 4.8 | 9.7 | 0.00 | 0.03 | 0.03 | 86 | 1017.2 |
| 20260506233917 | 23 | 240 | 9.7 | 14.5 | 0.00 | 0.03 | 0.03 | 85 | 1017.1 |
| 20260506233413 | 23 | 245 | 6.4 | 17.7 | 0.00 | 0.03 | 0.03 | 84 | 1017.2 |
| 20260506232910 | 23 | 218 | 12.9 | 17.7 | 0.00 | 0.03 | 0.03 | 84 | 1017.0 |
| 20260506232406 | 23 | 241 | 8.0 | 16.1 | 0.00 | 0.03 | 0.03 | 83 | 1017.3 |
| 20260506231902 | 23 | 241 | 4.8 | 9.7 | 0.00 | 0.03 | 0.03 | 83 | 1017.4 |
| 20260506231400 | 23 | 220 | 8.0 | 12.9 | 0.00 | 0.03 | 0.03 | 82 | 1017.4 |
| 20260506230857 | 23 | 239 | 6.4 | 11.3 | 0.00 | 0.03 | 0.03 | 82 | 1017.5 |
| 20260506230353 | 23 | 251 | 6.4 | 11.3 | 0.00 | 0.03 | 0.03 | 82 | 1017.4 |
| 20260506225849 | 23 | 229 | 6.4 | 12.9 | 0.00 | 0.03 | 0.03 | 82 | 1017.2 |
| 20260506225347 | 23 | 256 | 6.4 | 16.1 | 0.00 | 0.03 | 0.03 | 81 | 1017.3 |
| 20260506224839 | 23 | 211 | 6.4 | 9.7 | 0.00 | 0.03 | 0.03 | 82 | 1017.4 |
| 20260506224336 | 23 | 293 | 4.8 | 12.9 | 0.00 | 0.03 | 0.03 | 82 | 1017.4 |
| 20260506223832 | 23 | 256 | 6.4 | 14.5 | 0.00 | 0.03 | 0.03 | 82 | 1017.3 |
| 20260506223327 | 23 | 241 | 6.4 | 20.9 | 0.00 | 0.03 | 0.03 | 81 | 1017.1 |
| 20260506222825 | 23 | 263 | 3.2 | 19.3 | 0.00 | 0.03 | 0.03 | 80 | 1017.1 |
| 20260506222320 | 23 | 219 | 3.2 | 9.7 | 0.00 | 0.03 | 0.03 | 80 | 1017.1 |
| 20260506221818 | 24 | 250 | 8.0 | 16.1 | 0.00 | 0.03 | 0.03 | 79 | 1017.2 |
| 20260506221315 | 23 | 233 | 11.3 | 19.3 | 0.00 | 0.03 | 0.03 | 79 | 1017.1 |
| 20260506220814 | 24 | 205 | 17.7 | 20.9 | 0.00 | 0.03 | 0.03 | 79 | 1017.1 |
| 20260506220313 | 24 | 230 | 14.5 | 22.5 | 0.00 | 0.03 | 0.03 | 78 | 1016.9 |
| 20260506215810 | 24 | 203 | 14.5 | 24.1 | 0.00 | 0.03 | 0.03 | 79 | 1017.0 |
| 20260506215306 | 24 | 214 | 14.5 | 24.1 | 0.00 | 0.03 | 0.03 | 79 | 1017.3 |
| 20260506214802 | 24 | 217 | 14.5 | 17.7 | 0.00 | 0.03 | 0.03 | 78 | 1017.2 |
| 20260506214259 | 24 | 216 | 12.9 | 17.7 | 0.00 | 0.03 | 0.03 | 79 | 1017.3 |
| 20260506213758 | 24 | 221 | 11.3 | 14.5 | 0.00 | 0.03 | 0.03 | 79 | 1017.4 |
| 20260506213254 | 25 | 230 | 16.1 | 17.7 | 0.00 | 0.03 | 0.03 | 76 | 1017.4 |
| 20260506212752 | 25 | 220 | 16.1 | 24.1 | 0.00 | 0.03 | 0.03 | 77 | 1017.3 |
| 20260506212247 | 25 | 245 | 8.0 | 16.1 | 0.00 | 0.03 | 0.03 | 77 | 1017.3 |
| 20260506211742 | 25 | 213 | 11.3 | 20.9 | 0.00 | 0.03 | 0.03 | 77 | 1017.4 |
| 20260506211239 | 25 | 246 | 11.3 | 19.3 | 0.00 | 0.03 | 0.03 | 76 | 1017.2 |
| 20260506210736 | 25 | 241 | 8.0 | 25.7 | 0.00 | 0.03 | 0.03 | 76 | 1017.3 |
| 20260506210233 | 25 | 249 | 9.7 | 19.3 | 0.00 | 0.03 | 0.03 | 75 | 1017.4 |
| 20260506205731 | 25 | 240 | 22.5 | 25.7 | 0.00 | 0.03 | 0.03 | 75 | 1017.5 |
| 20260506205226 | 25 | 225 | 12.9 | 19.3 | 0.00 | 0.03 | 0.03 | 75 | 1017.6 |
| 20260506204723 | 25 | 241 | 12.9 | 24.1 | 0.00 | 0.03 | 0.03 | 75 | 1017.5 |
| 20260506204220 | 25 | 244 | 9.7 | 24.1 | 0.00 | 0.03 | 0.03 | 76 | 1017.4 |
| 20260506203718 | 25 | 273 | 9.7 | 27.4 | 0.00 | 0.03 | 0.03 | 75 | 1017.4 |
| 20260506203215 | 25 | 261 | 9.7 | 22.5 | 0.00 | 0.03 | 0.03 | 73 | 1017.5 |
| 20260506202713 | 25 | 225 | 19.3 | 27.4 | 0.00 | 0.03 | 0.03 | 71 | 1017.5 |
| 20260506202209 | 25 | 233 | 11.3 | 27.4 | 0.00 | 0.03 | 0.03 | 73 | 1017.7 |
| 20260506201706 | 25 | 223 | 19.3 | 22.5 | 0.00 | 0.03 | 0.03 | 74 | 1017.7 |
| 20260506201202 | 25 | 219 | 17.7 | 22.5 | 0.00 | 0.03 | 0.03 | 72 | 1017.6 |
| 20260506200659 | 25 | 290 | 6.4 | 16.1 | 0.00 | 0.03 | 0.03 | 72 | 1017.7 |
| 20260506200156 | 25 | 216 | 9.7 | 19.3 | 0.00 | 0.03 | 0.03 | 74 | 1017.7 |
| 20260506195653 | 25 | 227 | 9.7 | 22.5 | 0.00 | 0.03 | 0.03 | 75 | 1018.0 |
| 20260506195149 | 25 | 215 | 14.5 | 20.9 | 0.00 | 0.03 | 0.03 | 74 | 1017.9 |
| 20260506194647 | 25 | 220 | 11.3 | 22.5 | 0.00 | 0.03 | 0.03 | 73 | 1017.9 |
| 20260506194142 | 25 | 212 | 17.7 | 24.1 | 0.00 | 0.03 | 0.03 | 73 | 1017.8 |
| 20260506193641 | 25 | 232 | 16.1 | 24.1 | 0.00 | 0.03 | 0.03 | 74 | 1018.0 |
| 20260506193137 | 25 | 217 | 16.1 | 25.7 | 0.00 | 0.03 | 0.03 | 73 | 1017.9 |
| 20260506192634 | 25 | 233 | 12.9 | 24.1 | 0.00 | 0.03 | 0.03 | 73 | 1018.0 |
| 20260506192130 | 25 | 226 | 16.1 | 22.5 | 0.00 | 0.03 | 0.03 | 73 | 1018.2 |
| 20260506191627 | 25 | 234 | 11.3 | 22.5 | 0.00 | 0.03 | 0.03 | 74 | 1018.1 |
| 20260506191123 | 25 | 221 | 17.7 | 19.3 | 0.00 | 0.03 | 0.03 | 72 | 1018.3 |
| 20260506190621 | 26 | 219 | 14.5 | 20.9 | 0.00 | 0.03 | 0.03 | 72 | 1018.4 |
| 20260506190118 | 26 | 219 | 14.5 | 24.1 | 0.00 | 0.03 | 0.03 | 71 | 1018.4 |
| 20260506185615 | 26 | 276 | 4.8 | 19.3 | 0.00 | 0.03 | 0.03 | 72 | 1018.5 |
| 20260506185110 | 25 | 215 | 17.7 | 17.7 | 0.00 | 0.03 | 0.03 | 73 | 1018.9 |
| 20260506184609 | 26 | 225 | 12.9 | 17.7 | 0.00 | 0.03 | 0.03 | 72 | 1018.9 |
| 20260506184106 | 25 | 260 | 11.3 | 27.4 | 0.00 | 0.03 | 0.03 | 74 | 1019.2 |
| 20260506183602 | 25 | 234 | 8.0 | 16.1 | 0.00 | 0.03 | 0.03 | 75 | 1019.0 |
| 20260506183058 | 25 | 232 | 11.3 | 19.3 | 0.00 | 0.03 | 0.03 | 75 | 1019.1 |
| 20260506182555 | 25 | 229 | 9.7 | 19.3 | 0.00 | 0.03 | 0.03 | 73 | 1019.1 |
| 20260506182052 | 25 | 214 | 4.8 | 20.9 | 0.00 | 0.03 | 0.03 | 75 | 1019.0 |
| 20260506181551 | 25 | 219 | 17.7 | 24.1 | 0.00 | 0.03 | 0.03 | 74 | 1019.0 |
| 20260506181047 | 26 | 221 | 19.3 | 19.3 | 0.00 | 0.03 | 0.03 | 74 | 1019.0 |
| 20260506180543 | 25 | 239 | 8.0 | 19.3 | 0.00 | 0.03 | 0.03 | 75 | 1018.9 |
| 20260506180040 | 26 | 231 | 14.5 | 19.3 | 0.00 | 0.03 | 0.03 | 73 | 1019.2 |
| 20260506175537 | 25 | 208 | 11.3 | 19.3 | 0.00 | 0.03 | 0.03 | 75 | 1019.3 |
| 20260506175033 | 25 | 218 | 9.7 | 25.7 | 0.00 | 0.03 | 0.03 | 75 | 1019.5 |
| 20260506174532 | 25 | 238 | 9.7 | 19.3 | 0.00 | 0.03 | 0.03 | 76 | 1019.7 |
| 20260506174027 | 25 | 238 | 8.0 | 19.3 | 0.00 | 0.03 | 0.03 | 76 | 1019.7 |
| 20260506173526 | 25 | 218 | 12.9 | 19.3 | 0.00 | 0.03 | 0.03 | 75 | 1019.6 |
| 20260506173022 | 25 | 231 | 14.5 | 22.5 | 0.00 | 0.03 | 0.03 | 74 | 1019.5 |
| 20260506172520 | 25 | 222 | 14.5 | 17.7 | 0.00 | 0.03 | 0.03 | 74 | 1019.5 |
| 20260506172016 | 25 | 227 | 12.9 | 16.1 | 0.00 | 0.03 | 0.03 | 72 | 1019.6 |
| 20260506171513 | 25 | 258 | 8.0 | 24.1 | 0.00 | 0.03 | 0.03 | 73 | 1019.7 |
| 20260506171010 | 26 | 222 | 17.7 | 22.5 | 0.00 | 0.03 | 0.03 | 73 | 1019.6 |
| 20260506170508 | 26 | 223 | 9.7 | 16.1 | 0.00 | 0.03 | 0.03 | 72 | 1019.6 |
| 20260506170006 | 25 | 243 | 14.5 | 24.1 | 0.00 | 0.03 | 0.03 | 71 | 1019.6 |
| 20260506165504 | 25 | 235 | 14.5 | 19.3 | 0.00 | 0.03 | 0.03 | 72 | 1019.4 |
| 20260506164959 | 25 | 265 | 4.8 | 20.9 | 0.00 | 0.03 | 0.03 | 72 | 1019.7 |
| 20260506164456 | 25 | 252 | 6.4 | 20.9 | 0.00 | 0.03 | 0.03 | 71 | 1019.7 |
| 20260506163954 | 25 | 235 | 16.1 | 19.3 | 0.00 | 0.03 | 0.03 | 71 | 1019.6 |
| 20260506163449 | 25 | 237 | 9.7 | 17.7 | 0.00 | 0.03 | 0.03 | 71 | 1019.7 |
| 20260506162944 | 25 | 235 | 14.5 | 24.1 | 0.00 | 0.03 | 0.03 | 72 | 1019.7 |
| 20260506162442 | 25 | 245 | 8.0 | 20.9 | 0.00 | 0.03 | 0.03 | 73 | 1019.9 |
| 20260506161939 | 25 | 212 | 11.3 | 24.1 | 0.00 | 0.03 | 0.03 | 75 | 1019.9 |
| 20260506161437 | 25 | 244 | 8.0 | 16.1 | 0.00 | 0.03 | 0.03 | 74 | 1020.0 |
| 20260506160934 | 25 | 228 | 17.7 | 20.9 | 0.00 | 0.03 | 0.03 | 74 | 1020.2 |
| 20260506160432 | 25 | 227 | 11.3 | 16.1 | 0.00 | 0.03 | 0.03 | 73 | 1020.0 |
| 20260506155929 | 25 | 225 | 14.5 | 17.7 | 0.00 | 0.03 | 0.03 | 71 | 1020.0 |
| 20260506155427 | 25 | 220 | 8.0 | 17.7 | 0.00 | 0.03 | 0.03 | 72 | 1020.0 |
| 20260506153548 | 25 | 241 | 12.9 | 19.3 | 0.00 | 0.03 | 0.03 | 70 | 1020.1 |
| 20260506153045 | 25 | 206 | 14.5 | 24.1 | 0.00 | 0.03 | 0.03 | 71 | 1020.1 |
| 20260506152542 | 25 | 233 | 14.5 | 22.5 | 0.00 | 0.03 | 0.03 | 72 | 1020.2 |
| 20260506152040 | 25 | 242 | 11.3 | 19.3 | 0.00 | 0.03 | 0.03 | 72 | 1020.2 |
| 20260506151538 | 25 | 215 | 19.3 | 20.9 | 0.00 | 0.03 | 0.03 | 73 | 1020.2 |
| 20260506151035 | 25 | 236 | 12.9 | 17.7 | 0.00 | 0.03 | 0.03 | 73 | 1020.1 |
| 20260506150531 | 25 | 267 | 4.8 | 16.1 | 0.00 | 0.03 | 0.03 | 74 | 1020.1 |
| 20260506150028 | 25 | 200 | 17.7 | 22.5 | 0.00 | 0.03 | 0.03 | 72 | 1020.1 |
| 20260506145525 | 25 | 235 | 9.7 | 19.3 | 0.00 | 0.03 | 0.03 | 73 | 1019.9 |
| 20260506145023 | 25 | 208 | 14.5 | 17.7 | 0.00 | 0.03 | 0.03 | 71 | 1019.7 |
| 20260506144519 | 25 | 224 | 9.7 | 14.5 | 0.00 | 0.03 | 0.03 | 71 | 1019.7 |
| 20260506144017 | 25 | 248 | 14.5 | 16.1 | 0.00 | 0.03 | 0.03 | 72 | 1019.7 |
| 20260506143514 | 25 | 229 | 12.9 | 16.1 | 0.00 | 0.03 | 0.03 | 72 | 1019.7 |
| 20260506143013 | 24 | 250 | 6.4 | 14.5 | 0.00 | 0.03 | 0.03 | 73 | 1019.8 |
| 20260506142510 | 24 | 233 | 6.4 | 16.1 | 0.00 | 0.03 | 0.03 | 74 | 1019.8 |
| 20260506142008 | 24 | 201 | 14.5 | 19.3 | 0.00 | 0.03 | 0.03 | 74 | 1019.6 |
| 20260506141505 | 24 | 212 | 11.3 | 16.1 | 0.00 | 0.03 | 0.03 | 74 | 1020.0 |
| 20260506141003 | 24 | 245 | 6.4 | 17.7 | 0.00 | 0.03 | 0.03 | 74 | 1019.9 |
| 20260506140500 | 24 | 254 | 8.0 | 16.1 | 0.00 | 0.03 | 0.03 | 74 | 1019.8 |
| 20260506135957 | 24 | 225 | 14.5 | 24.1 | 0.00 | 0.03 | 0.03 | 74 | 1019.5 |
| 20260506135454 | 24 | 244 | 6.4 | 16.1 | 0.00 | 0.03 | 0.03 | 76 | 1019.5 |
| 20260506134950 | 23 | 238 | 14.5 | 17.7 | 0.00 | 0.03 | 0.03 | 74 | 1019.5 |
| 20260506134446 | 24 | 220 | 8.0 | 19.3 | 0.00 | 0.03 | 0.03 | 73 | 1019.6 |
| 20260506133943 | 24 | 231 | 11.3 | 20.9 | 0.00 | 0.03 | 0.03 | 73 | 1019.6 |
| 20260506133440 | 23 | 305 | 3.2 | 17.7 | 0.00 | 0.03 | 0.03 | 75 | 1019.6 |
| 20260506132937 | 23 | 241 | 8.0 | 14.5 | 0.00 | 0.03 | 0.03 | 74 | 1019.5 |
| 20260506132434 | 23 | 211 | 14.5 | 17.7 | 0.00 | 0.03 | 0.03 | 76 | 1019.5 |
| 20260506131932 | 23 | 246 | 8.0 | 14.5 | 0.00 | 0.03 | 0.03 | 77 | 1019.3 |
| 20260506131428 | 23 | 237 | 8.0 | 17.7 | 0.00 | 0.03 | 0.03 | 77 | 1019.3 |
| 20260506130925 | 23 | 236 | 9.7 | 24.1 | 0.00 | 0.03 | 0.03 | 78 | 1019.4 |
| 20260506130421 | 22 | 212 | 9.7 | 19.3 | 0.00 | 0.03 | 0.03 | 79 | 1019.5 |
| 20260506125920 | 22 | 240 | 8.0 | 20.9 | 0.00 | 0.03 | 0.03 | 79 | 1019.2 |
| 20260506125417 | 22 | 236 | 6.4 | 14.5 | 0.00 | 0.03 | 0.03 | 79 | 1019.5 |
| 20260506124916 | 22 | 231 | 9.7 | 17.7 | 0.00 | 0.03 | 0.03 | 80 | 1019.2 |
| 20260506124413 | 22 | 235 | 9.7 | 11.3 | 0.00 | 0.03 | 0.03 | 79 | 1019.1 |
| 20260506123910 | 22 | 260 | 8.0 | 11.3 | 0.00 | 0.03 | 0.03 | 79 | 1019.3 |
| 20260506123408 | 22 | 225 | 12.9 | 12.9 | 0.00 | 0.03 | 0.03 | 80 | 1019.4 |
| 20260506122905 | 22 | 236 | 8.0 | 14.5 | 0.00 | 0.03 | 0.03 | 80 | 1019.3 |
| 20260506122402 | 22 | 263 | 6.4 | 9.7 | 0.00 | 0.03 | 0.03 | 81 | 1019.3 |
| 20260506121900 | 21 | 302 | 3.2 | 12.9 | 0.00 | 0.03 | 0.03 | 81 | 1019.3 |
| 20260506121357 | 21 | 209 | 8.0 | 9.7 | 0.00 | 0.03 | 0.03 | 82 | 1019.3 |
| 20260506120854 | 21 | 234 | 8.0 | 9.7 | 0.00 | 0.03 | 0.03 | 84 | 1019.1 |
| 20260506120352 | 21 | 225 | 8.0 | 12.9 | 0.00 | 0.03 | 0.03 | 85 | 1019.1 |
| 20260506115849 | 21 | 271 | 3.2 | 14.5 | 0.05 | 0.03 | 0.03 | 86 | 1019.1 |
| 20260506115347 | 20 | 236 | 8.0 | 9.7 | 0.05 | 0.03 | 0.03 | 88 | 1019.2 |
| 20260506114845 | 20 | 254 | 3.2 | 6.4 | 0.00 | 0.00 | 0.00 | 91 | 1019.1 |
| 20260506114342 | 20 | 259 | 3.2 | 4.8 | 0.00 | 0.00 | 0.00 | 94 | 1018.8 |
| 20260506113841 | 19 | 244 | 4.8 | 4.8 | 0.00 | 0.00 | 0.00 | 96 | 1018.8 |
| 20260506113338 | 18 | 242 | 0.0 | 3.2 | 0.00 | 0.00 | 0.00 | 97 | 1018.8 |
| 20260506112834 | 18 | 247 | 3.2 | 3.2 | 0.00 | 0.00 | 0.00 | 97 | 1018.7 |
| 20260506112332 | 17 | 331 | 3.2 | 3.2 | 0.00 | 0.00 | 0.00 | 96 | 1018.7 |
| 20260506111829 | 17 | 343 | 3.2 | 3.2 | 0.00 | 0.00 | 0.00 | 96 | 1018.9 |
| 20260506111327 | 17 | 344 | 3.2 | 3.2 | 0.00 | 0.00 | 0.00 | 96 | 1018.8 |
| 20260506110824 | 17 | 340 | 3.2 | 3.2 | 0.00 | 0.00 | 0.00 | 96 | 1018.7 |
| 20260506110321 | 17 | 336 | 3.2 | 3.2 | 0.05 | 0.00 | 0.00 | 95 | 1018.7 |
| 20260506105818 | 17 | 336 | 3.2 | 3.2 | 0.05 | 0.00 | 0.00 | 95 | 1018.8 |
| 20260506105314 | 16 | 326 | 3.2 | 3.2 | 0.00 | 0.00 | 0.00 | 95 | 1018.9 |
| 20260506104812 | 17 | 340 | 3.2 | 3.2 | 0.00 | 0.00 | 0.00 | 95 | 1018.7 |
| 20260506104310 | 17 | 357 | 3.2 | 3.2 | 0.00 | 0.00 | 0.00 | 95 | 1018.7 |
| 20260506103807 | 17 | 344 | 3.2 | 3.2 | 0.00 | 0.00 | 0.00 | 94 | 1018.7 |
| 20260506103305 | 17 | 344 | 4.8 | 4.8 | 0.00 | 0.00 | 0.00 | 94 | 1018.8 |
| 20260506102802 | 17 | 353 | 3.2 | 4.8 | 0.00 | 0.00 | 0.00 | 94 | 1018.6 |
| 20260506102300 | 17 | 355 | 3.2 | 3.2 | 0.00 | 0.00 | 0.00 | 94 | 1018.5 |
| 20260506101757 | 17 | 343 | 3.2 | 4.8 | 0.00 | 0.00 | 0.00 | 94 | 1018.5 |
| 20260506101253 | 17 | 339 | 3.2 | 4.8 | 0.00 | 0.00 | 0.00 | 94 | 1018.5 |
| 20260506100751 | 17 | 346 | 3.2 | 4.8 | 0.00 | 0.00 | 0.00 | 94 | 1018.6 |
| 20260506100249 | 17 | 335 | 3.2 | 3.2 | 0.00 | 0.00 | 0.00 | 93 | 1018.4 |
| 20260506095747 | 17 | 348 | 3.2 | 4.8 | 0.00 | 0.00 | 0.00 | 93 | 1018.4 |
| 20260506095244 | 17 | 351 | 4.8 | 4.8 | 0.00 | 0.00 | 0.00 | 93 | 1018.6 |
| 20260506094740 | 17 | 355 | 3.2 | 4.8 | 0.00 | 0.00 | 0.00 | 93 | 1018.6 |
| 20260506094239 | 17 | 346 | 3.2 | 3.2 | 0.00 | 0.00 | 0.00 | 92 | 1018.6 |
| 20260506093737 | 17 | 353 | 3.2 | 4.8 | 0.00 | 0.00 | 0.00 | 92 | 1018.4 |
| 20260506093234 | 17 | 351 | 3.2 | 4.8 | 0.00 | 0.00 | 0.00 | 92 | 1018.3 |
| 20260506092731 | 17 | 351 | 3.2 | 4.8 | 0.00 | 0.00 | 0.00 | 91 | 1018.5 |
| 20260506092229 | 17 | 335 | 1.6 | 3.2 | 0.00 | 0.00 | 0.00 | 91 | 1018.3 |
| 20260506091726 | 17 | 334 | 3.2 | 4.8 | 0.00 | 0.00 | 0.00 | 91 | 1018.5 |
| 20260506091224 | 18 | 355 | 3.2 | 4.8 | 0.00 | 0.00 | 0.00 | 90 | 1018.5 |
| 20260506090721 | 18 | 358 | 3.2 | 3.2 | 0.00 | 0.00 | 0.00 | 90 | 1018.6 |
| 20260506090218 | 18 | 6 | 3.2 | 4.8 | 0.00 | 0.00 | 0.00 | 90 | 1018.5 |
| 20260506085715 | 18 | 348 | 3.2 | 3.2 | 0.00 | 0.00 | 0.00 | 89 | 1018.5 |
| 20260506085211 | 18 | 346 | 3.2 | 3.2 | 0.00 | 0.00 | 0.00 | 89 | 1018.6 |
| 20260506084708 | 18 | 349 | 4.8 | 4.8 | 0.00 | 0.00 | 0.00 | 89 | 1018.7 |
| 20260506084204 | 18 | 342 | 3.2 | 3.2 | 0.00 | 0.00 | 0.00 | 88 | 1018.6 |
| 20260506083701 | 18 | 336 | 1.6 | 3.2 | 0.00 | 0.00 | 0.00 | 88 | 1018.6 |
| 20260506083159 | 18 | 304 | 0.0 | 3.2 | 0.00 | 0.00 | 0.00 | 87 | 1018.5 |
| 20260506082656 | 19 | 320 | 1.6 | 3.2 | 0.00 | 0.00 | 0.00 | 87 | 1018.5 |
| 20260506082156 | 19 | 328 | 3.2 | 3.2 | 0.00 | 0.00 | 0.00 | 87 | 1018.5 |
| 20260506081655 | 19 | 338 | 3.2 | 4.8 | 0.00 | 0.00 | 0.00 | 86 | 1018.5 |
| 20260506081152 | 19 | 301 | 3.2 | 3.2 | 0.00 | 0.00 | 0.00 | 86 | 1018.6 |
| 20260506080650 | 20 | 291 | 3.2 | 3.2 | 0.00 | 0.00 | 0.00 | 86 | 1018.3 |
| 20260506080146 | 20 | 306 | 0.0 | 4.8 | 0.00 | 0.00 | 0.00 | 86 | 1018.3 |
| 20260506073130 | 20 | 254 | 0.0 | 4.8 | 0.00 | 0.00 | 0.00 | 84 | 1018.2 |
| 20260506072627 | 20 | 285 | 3.2 | 6.4 | 0.00 | 0.00 | 0.00 | 83 | 1018.1 |
| 20260506072125 | 20 | 265 | 3.2 | 9.7 | 0.00 | 0.00 | 0.00 | 83 | 1018.4 |
| 20260506071622 | 20 | 237 | 6.4 | 9.7 | 0.00 | 0.00 | 0.00 | 83 | 1018.3 |
| 20260506071120 | 20 | 264 | 3.2 | 8.0 | 0.00 | 0.00 | 0.00 | 83 | 1018.4 |
| 20260506070616 | 20 | 269 | 3.2 | 12.9 | 0.00 | 0.00 | 0.00 | 83 | 1018.3 |
| 20260506070114 | 20 | 214 | 6.4 | 9.7 | 0.00 | 0.00 | 0.00 | 83 | 1018.4 |
| 20260506062050 | 20 | 285 | 3.2 | 9.7 | 0.00 | 0.00 | 0.00 | 82 | 1018.7 |
| 20260506061546 | 20 | 242 | 6.4 | 6.4 | 0.00 | 0.00 | 0.00 | 81 | 1018.5 |
| 20260506061044 | 20 | 240 | 6.4 | 6.4 | 0.00 | 0.00 | 0.00 | 81 | 1018.6 |
| 20260506060543 | 20 | 269 | 3.2 | 6.4 | 0.00 | 0.00 | 0.00 | 80 | 1018.4 |
| 20260506051011 | 20 | 220 | 6.4 | 8.0 | 0.00 | 0.00 | 0.00 | 77 | 1019.3 |
| 20260506050509 | 20 | 236 | 6.4 | 8.0 | 0.00 | 0.00 | 0.00 | 77 | 1019.5 |
| 20260506044959 | 21 | 236 | 11.3 | 12.9 | 0.00 | 0.00 | 0.00 | 76 | 1019.4 |
| 20260506044458 | 21 | 271 | 3.2 | 12.9 | 0.00 | 0.00 | 0.00 | 76 | 1019.7 |
| 20260506043954 | 21 | 273 | 3.2 | 9.7 | 0.00 | 0.00 | 0.00 | 76 | 1019.4 |
| 20260506043451 | 21 | 251 | 3.2 | 6.4 | 0.00 | 0.00 | 0.00 | 76 | 1019.5 |
| 20260506042949 | 21 | 258 | 6.4 | 6.4 | 0.00 | 0.00 | 0.00 | 75 | 1019.4 |
| 20260506042448 | 21 | 257 | 4.8 | 6.4 | 0.00 | 0.00 | 0.00 | 75 | 1019.4 |
| 20260506041946 | 21 | 261 | 3.2 | 8.0 | 0.00 | 0.00 | 0.00 | 75 | 1019.5 |
| 20260506041444 | 21 | 259 | 4.8 | 9.7 | 0.00 | 0.00 | 0.00 | 75 | 1019.4 |
| 20260506040941 | 21 | 267 | 3.2 | 6.4 | 0.00 | 0.00 | 0.00 | 76 | 1019.4 |